| time (UTC) | temp F | wind direction | speed MPH | gust MPH | rain 1hr in | rain 24hr in | rain mn in | humidity % | barometer mb |
| 20260505111759 | 40 | 82 | 0.0 | 0.0 | 0.00 | 0.00 | 0.00 | 91 | 4089.1 |
| 20260505111254 | 40 | 81 | 0.0 | 0.0 | 0.00 | 0.00 | 0.00 | 91 | 4089.1 |
| 20260505110750 | 40 | 77 | 0.0 | 1.0 | 0.00 | 0.00 | 0.00 | 90 | 4089.1 |
| 20260505110248 | 40 | 64 | 0.0 | 1.0 | 0.00 | 0.00 | 0.00 | 90 | 4089.1 |
| 20260505101722 | 38 | 97 | 0.0 | 0.0 | 0.00 | 0.00 | 0.00 | 93 | 4088.0 |
| 20260505101218 | 39 | 98 | 0.0 | 0.0 | 0.00 | 0.00 | 0.00 | 92 | 4088.3 |
| 20260505100715 | 39 | 98 | 0.0 | 0.0 | 0.00 | 0.00 | 0.00 | 90 | 4088.0 |
| 20260505100212 | 39 | 104 | 0.0 | 0.0 | 0.00 | 0.00 | 0.00 | 89 | 4088.0 |
| 20260505095707 | 39 | 113 | 0.0 | 1.0 | 0.00 | 0.00 | 0.00 | 89 | 4088.0 |
| 20260505095205 | 39 | 112 | 0.0 | 1.0 | 0.00 | 0.00 | 0.00 | 89 | 4087.6 |
| 20260505094701 | 39 | 99 | 0.0 | 1.0 | 0.00 | 0.00 | 0.00 | 89 | 4087.6 |
| 20260505094157 | 39 | 88 | 0.0 | 1.0 | 0.00 | 0.00 | 0.00 | 90 | 4088.0 |
| 20260505093653 | 39 | 92 | 1.0 | 1.0 | 0.00 | 0.00 | 0.00 | 92 | 4088.0 |
| 20260505093151 | 39 | 74 | 1.0 | 1.0 | 0.00 | 0.00 | 0.00 | 92 | 4088.0 |
| 20260505092648 | 40 | 84 | 0.0 | 1.0 | 0.00 | 0.00 | 0.00 | 91 | 4087.6 |
| 20260505092147 | 40 | 85 | 1.0 | 1.0 | 0.00 | 0.00 | 0.00 | 91 | 4087.6 |
| 20260505091643 | 39 | 58 | 0.0 | 0.0 | 0.00 | 0.00 | 0.00 | 94 | 4087.6 |
| 20260505091141 | 40 | 24 | 0.0 | 0.0 | 0.00 | 0.00 | 0.00 | 93 | 4087.6 |
| 20260505090638 | 40 | 24 | 0.0 | 0.0 | 0.00 | 0.00 | 0.00 | 92 | 4087.6 |
| 20260505090137 | 40 | 22 | 0.0 | 0.0 | 0.00 | 0.00 | 0.00 | 92 | 4087.6 |
| 20260505085634 | 40 | 17 | 0.0 | 0.0 | 0.00 | 0.00 | 0.00 | 92 | 4087.6 |
| 20260505085132 | 41 | 17 | 0.0 | 0.0 | 0.00 | 0.00 | 0.00 | 91 | 4087.6 |
| 20260505084629 | 41 | 17 | 0.0 | 0.0 | 0.00 | 0.00 | 0.00 | 91 | 4087.6 |
| 20260505084127 | 41 | 0 | 0.0 | 1.0 | 0.00 | 0.00 | 0.00 | 92 | 4087.6 |
| 20260505083625 | 41 | 73 | 0.0 | 0.0 | 0.00 | 0.00 | 0.00 | 92 | 4087.6 |
| 20260505083121 | 41 | 73 | 0.0 | 0.0 | 0.00 | 0.00 | 0.00 | 92 | 4087.3 |
| 20260505082617 | 41 | 70 | 0.0 | 0.0 | 0.00 | 0.00 | 0.00 | 92 | 4087.6 |
| 20260505082114 | 41 | 70 | 0.0 | 0.0 | 0.00 | 0.00 | 0.00 | 91 | 4087.3 |
| 20260505081610 | 41 | 70 | 0.0 | 0.0 | 0.00 | 0.00 | 0.00 | 92 | 4087.3 |
| 20260505081108 | 41 | 64 | 1.0 | 1.0 | 0.00 | 0.00 | 0.00 | 91 | 4087.0 |
| 20260505080604 | 42 | 26 | 1.0 | 2.0 | 0.00 | 0.00 | 0.00 | 91 | 4087.3 |
| 20260505080101 | 42 | 92 | 0.0 | 0.0 | 0.00 | 0.00 | 0.00 | 91 | 4087.0 |
| 20260505075556 | 42 | 93 | 0.0 | 0.0 | 0.00 | 0.00 | 0.00 | 90 | 4087.0 |
| 20260505075053 | 42 | 92 | 0.0 | 0.0 | 0.00 | 0.00 | 0.00 | 89 | 4087.3 |
| 20260505074550 | 43 | 100 | 0.0 | 0.0 | 0.00 | 0.00 | 0.00 | 87 | 4087.0 |
| 20260505074047 | 43 | 25 | 2.0 | 2.0 | 0.00 | 0.00 | 0.00 | 86 | 4087.0 |
| 20260505073544 | 43 | 113 | 1.0 | 2.0 | 0.00 | 0.00 | 0.00 | 85 | 4087.0 |
| 20260505073043 | 43 | 60 | 1.0 | 1.0 | 0.00 | 0.00 | 0.00 | 85 | 4087.0 |
| 20260505072538 | 43 | 92 | 2.0 | 3.0 | 0.00 | 0.00 | 0.00 | 85 | 4087.0 |
| 20260505072035 | 43 | 48 | 1.0 | 2.0 | 0.00 | 0.00 | 0.00 | 86 | 4087.0 |
| 20260505071530 | 42 | 83 | 1.0 | 2.0 | 0.00 | 0.00 | 0.00 | 89 | 4087.0 |
| 20260505071029 | 42 | 89 | 0.0 | 1.0 | 0.00 | 0.00 | 0.00 | 91 | 4087.0 |
| 20260505070526 | 42 | 100 | 0.0 | 1.0 | 0.00 | 0.00 | 0.00 | 92 | 4087.0 |
| 20260505070022 | 43 | 110 | 0.0 | 0.0 | 0.00 | 0.00 | 0.00 | 91 | 4087.0 |
| 20260505065518 | 43 | 110 | 0.0 | 0.0 | 0.00 | 0.00 | 0.00 | 90 | 4086.6 |
| 20260505065014 | 43 | 107 | 0.0 | 1.0 | 0.00 | 0.00 | 0.00 | 88 | 4086.6 |
| 20260505064511 | 44 | 107 | 0.0 | 0.0 | 0.00 | 0.00 | 0.00 | 86 | 4086.6 |
| 20260505064010 | 44 | 79 | 0.0 | 0.0 | 0.00 | 0.00 | 0.00 | 85 | 4086.6 |
| 20260505063507 | 43 | 75 | 0.0 | 1.0 | 0.00 | 0.00 | 0.00 | 85 | 4086.6 |
| 20260505063002 | 43 | 77 | 1.0 | 1.0 | 0.00 | 0.00 | 0.00 | 86 | 4086.6 |
| 20260505062459 | 43 | 102 | 1.0 | 2.0 | 0.00 | 0.00 | 0.00 | 89 | 4086.6 |
| 20260505061956 | 43 | 83 | 0.0 | 0.0 | 0.00 | 0.00 | 0.00 | 91 | 4086.6 |
| 20260505061454 | 43 | 90 | 0.0 | 0.0 | 0.00 | 0.00 | 0.00 | 92 | 4086.6 |
| 20260505060951 | 43 | 86 | 0.0 | 0.0 | 0.00 | 0.00 | 0.00 | 91 | 4086.6 |
| 20260505060449 | 43 | 89 | 0.0 | 0.0 | 0.00 | 0.00 | 0.00 | 91 | 4086.6 |
| 20260505055945 | 43 | 71 | 0.0 | 1.0 | 0.00 | 0.00 | 0.00 | 89 | 4086.3 |
| 20260505055441 | 43 | 50 | 2.0 | 2.0 | 0.00 | 0.00 | 0.00 | 88 | 4086.3 |
| 20260505054938 | 43 | 97 | 0.0 | 1.0 | 0.00 | 0.00 | 0.00 | 90 | 4086.3 |
| 20260505054435 | 44 | 83 | 0.0 | 0.0 | 0.00 | 0.00 | 0.00 | 91 | 4086.3 |
| 20260505053933 | 44 | 89 | 0.0 | 0.0 | 0.00 | 0.00 | 0.00 | 89 | 4086.3 |
| 20260505053430 | 44 | 102 | 0.0 | 0.0 | 0.00 | 0.00 | 0.00 | 88 | 4086.0 |
| 20260505052927 | 45 | 105 | 0.0 | 0.0 | 0.00 | 0.00 | 0.00 | 87 | 4086.3 |
| 20260505052424 | 45 | 105 | 0.0 | 0.0 | 0.00 | 0.00 | 0.00 | 84 | 4086.3 |
| 20260505051921 | 46 | 58 | 1.0 | 2.0 | 0.00 | 0.00 | 0.00 | 81 | 4086.0 |
| 20260505051418 | 46 | 50 | 0.0 | 0.0 | 0.00 | 0.00 | 0.00 | 79 | 4086.0 |
| 20260505050916 | 46 | 37 | 1.0 | 2.0 | 0.00 | 0.00 | 0.00 | 77 | 4086.0 |
| 20260505050414 | 46 | 33 | 0.0 | 1.0 | 0.00 | 0.00 | 0.00 | 76 | 4085.6 |
| 20260505041341 | 45 | 32 | 1.0 | 1.0 | 0.00 | 0.00 | 0.00 | 86 | 4085.6 |
| 20260505040838 | 45 | 15 | 0.0 | 0.0 | 0.00 | 0.00 | 0.00 | 86 | 4085.3 |
| 20260505040336 | 45 | 21 | 0.0 | 1.0 | 0.00 | 0.00 | 0.00 | 88 | 4085.3 |
| 20260505035833 | 45 | 16 | 0.0 | 0.0 | 0.00 | 0.02 | 0.02 | 87 | 4085.3 |
| 20260505035328 | 45 | 9 | 1.0 | 1.0 | 0.00 | 0.02 | 0.02 | 89 | 4085.6 |
| 20260505034826 | 45 | 24 | 0.0 | 0.0 | 0.00 | 0.02 | 0.02 | 90 | 4085.3 |
| 20260505034322 | 45 | 23 | 0.0 | 0.0 | 0.00 | 0.02 | 0.02 | 89 | 4085.3 |
| 20260505033820 | 45 | 21 | 0.0 | 0.0 | 0.00 | 0.02 | 0.02 | 91 | 4085.3 |
| 20260505033316 | 45 | 21 | 1.0 | 1.0 | 0.00 | 0.02 | 0.02 | 92 | 4085.3 |
| 20260505032815 | 45 | 14 | 0.0 | 0.0 | 0.00 | 0.02 | 0.02 | 93 | 4085.3 |
| 20260505032310 | 45 | 13 | 0.0 | 0.0 | 0.00 | 0.02 | 0.02 | 93 | 4085.3 |
| 20260505031808 | 44 | 42 | 0.0 | 0.0 | 0.00 | 0.02 | 0.02 | 95 | 4085.3 |
| 20260505031304 | 44 | 42 | 0.0 | 0.0 | 0.00 | 0.02 | 0.02 | 95 | 4085.3 |
| 20260505030802 | 44 | 42 | 0.0 | 0.0 | 0.00 | 0.02 | 0.02 | 95 | 4085.3 |
| 20260505030258 | 44 | 42 | 0.0 | 0.0 | 0.00 | 0.02 | 0.02 | 95 | 4084.9 |
| 20260505025753 | 44 | 42 | 0.0 | 0.0 | 0.00 | 0.02 | 0.02 | 95 | 4084.9 |
| 20260505025251 | 45 | 42 | 0.0 | 0.0 | 0.00 | 0.02 | 0.02 | 95 | 4084.6 |
| 20260505024749 | 45 | 42 | 0.0 | 0.0 | 0.00 | 0.02 | 0.02 | 95 | 4084.9 |
| 20260505024246 | 45 | 42 | 0.0 | 0.0 | 0.00 | 0.02 | 0.02 | 94 | 4084.6 |
| 20260505023744 | 45 | 40 | 0.0 | 0.0 | 0.00 | 0.02 | 0.02 | 95 | 4084.9 |
| 20260505023240 | 45 | 40 | 0.0 | 0.0 | 0.00 | 0.02 | 0.02 | 95 | 4084.6 |
| 20260505022738 | 45 | 40 | 0.0 | 0.0 | 0.00 | 0.02 | 0.02 | 94 | 4084.6 |
| 20260505022235 | 45 | 40 | 0.0 | 0.0 | 0.00 | 0.02 | 0.02 | 94 | 4084.6 |
| 20260505021731 | 45 | 39 | 0.0 | 0.0 | 0.00 | 0.02 | 0.02 | 94 | 4084.9 |
| 20260505021229 | 46 | 39 | 0.0 | 0.0 | 0.00 | 0.02 | 0.02 | 94 | 4084.3 |
| 20260505020724 | 46 | 38 | 0.0 | 0.0 | 0.00 | 0.02 | 0.02 | 94 | 4084.9 |
| 20260505020219 | 46 | 31 | 0.0 | 0.0 | 0.00 | 0.02 | 0.02 | 93 | 4084.9 |
| 20260505015717 | 46 | 70 | 0.0 | 1.0 | 0.00 | 0.02 | 0.02 | 96 | 4084.9 |
| 20260505015214 | 46 | 70 | 2.0 | 2.0 | 0.00 | 0.02 | 0.02 | 96 | 4084.6 |
| 20260505014711 | 45 | 54 | 2.0 | 3.0 | 0.00 | 0.02 | 0.02 | 97 | 4084.9 |
| 20260505014208 | 46 | 110 | 1.0 | 1.0 | 0.00 | 0.02 | 0.02 | 99 | 4084.6 |
| 20260505013705 | 46 | 180 | 1.0 | 2.0 | 0.00 | 0.02 | 0.02 | 99 | 4084.6 |
| 20260505013202 | 46 | 183 | 0.0 | 0.0 | 0.00 | 0.02 | 0.02 | 99 | 4084.6 |
| 20260505012700 | 46 | 170 | 0.0 | 0.0 | 0.00 | 0.02 | 0.02 | 99 | 4084.3 |
| 20260505012157 | 46 | 171 | 0.0 | 0.0 | 0.00 | 0.02 | 0.02 | 99 | 4083.6 |
| 20260505011653 | 46 | 172 | 2.0 | 2.0 | 0.00 | 0.02 | 0.02 | 99 | 4083.9 |
| 20260505011150 | 46 | 159 | 1.0 | 1.0 | 0.00 | 0.02 | 0.02 | 99 | 4083.9 |
| 20260505010645 | 46 | 91 | 0.0 | 0.0 | 0.00 | 0.02 | 0.02 | 99 | 4083.6 |
| 20260505010143 | 46 | 91 | 0.0 | 0.0 | 0.00 | 0.02 | 0.02 | 99 | 4083.6 |
| 20260505005638 | 46 | 91 | 0.0 | 0.0 | 0.01 | 0.02 | 0.02 | 99 | 4083.6 |
| 20260505005136 | 47 | 91 | 0.0 | 0.0 | 0.01 | 0.02 | 0.02 | 99 | 4083.6 |
| 20260505004632 | 47 | 91 | 0.0 | 0.0 | 0.01 | 0.02 | 0.02 | 99 | 4083.6 |
| 20260505004129 | 48 | 91 | 0.0 | 0.0 | 0.01 | 0.02 | 0.02 | 99 | 4083.6 |
| 20260505003626 | 48 | 91 | 0.0 | 0.0 | 0.01 | 0.02 | 0.02 | 97 | 4083.6 |
| 20260505003124 | 48 | 91 | 0.0 | 0.0 | 0.01 | 0.02 | 0.02 | 96 | 4083.9 |
| 20260505002620 | 48 | 91 | 0.0 | 0.0 | 0.00 | 0.01 | 0.01 | 96 | 4083.6 |
| 20260505002118 | 48 | 91 | 0.0 | 0.0 | 0.00 | 0.01 | 0.01 | 95 | 4083.2 |
| 20260505001615 | 48 | 91 | 0.0 | 0.0 | 0.00 | 0.01 | 0.01 | 95 | 4083.6 |
| 20260505001113 | 49 | 91 | 0.0 | 0.0 | 0.00 | 0.01 | 0.01 | 94 | 4083.6 |
| 20260505000609 | 49 | 91 | 0.0 | 0.0 | 0.00 | 0.01 | 0.01 | 93 | 4083.6 |
| 20260505000108 | 49 | 90 | 0.0 | 0.0 | 0.00 | 0.01 | 0.01 | 93 | 4083.2 |
| 20260504235604 | 49 | 51 | 0.0 | 0.0 | 0.00 | 0.01 | 0.01 | 93 | 4082.6 |
| 20260504235100 | 50 | 50 | 0.0 | 0.0 | 0.00 | 0.01 | 0.01 | 91 | 4082.9 |
| 20260504234557 | 50 | 41 | 0.0 | 0.0 | 0.00 | 0.01 | 0.01 | 88 | 4082.9 |
| 20260504234054 | 50 | 12 | 1.0 | 2.0 | 0.00 | 0.01 | 0.01 | 87 | 4082.6 |
| 20260504233549 | 50 | 86 | 1.0 | 2.0 | 0.00 | 0.01 | 0.01 | 86 | 4082.2 |
| 20260504233046 | 51 | 358 | 1.0 | 1.0 | 0.00 | 0.01 | 0.01 | 87 | 4082.2 |
| 20260504232544 | 51 | 2 | 0.0 | 0.0 | 0.00 | 0.01 | 0.01 | 86 | 4082.2 |
| 20260504232041 | 51 | 21 | 1.0 | 1.0 | 0.00 | 0.01 | 0.01 | 86 | 4081.9 |
| 20260504231538 | 51 | 37 | 1.0 | 1.0 | 0.00 | 0.01 | 0.01 | 85 | 4081.9 |
| 20260504231034 | 51 | 46 | 1.0 | 2.0 | 0.00 | 0.01 | 0.01 | 85 | 4081.9 |
| 20260504230530 | 52 | 16 | 3.0 | 3.0 | 0.00 | 0.01 | 0.01 | 85 | 4081.9 |
| 20260504230029 | 52 | 23 | 3.0 | 3.0 | 0.00 | 0.01 | 0.01 | 84 | 4081.1 |
| 20260504225526 | 52 | 28 | 3.0 | 3.0 | 0.00 | 0.01 | 0.01 | 83 | 4081.1 |
| 20260504225023 | 52 | 21 | 4.0 | 5.0 | 0.00 | 0.01 | 0.01 | 83 | 4081.1 |
| 20260504224520 | 52 | 359 | 2.0 | 2.0 | 0.00 | 0.01 | 0.01 | 83 | 4080.8 |
| 20260504224017 | 52 | 31 | 2.0 | 3.0 | 0.00 | 0.01 | 0.01 | 83 | 4080.8 |
| 20260504223513 | 51 | 36 | 3.0 | 3.0 | 0.00 | 0.01 | 0.01 | 84 | 4080.8 |
| 20260504223009 | 48 | 7 | 2.0 | 2.0 | 0.00 | 0.01 | 0.01 | 89 | 4080.8 |
| 20260504222506 | 47 | 275 | 1.0 | 2.0 | 0.00 | 0.01 | 0.01 | 91 | 4080.8 |
| 20260504222004 | 47 | 12 | 0.0 | 0.0 | 0.00 | 0.01 | 0.01 | 89 | 4080.8 |
| 20260504221501 | 48 | 196 | 1.0 | 2.0 | 0.00 | 0.01 | 0.01 | 89 | 4080.4 |
| 20260504220958 | 48 | 42 | 2.0 | 3.0 | 0.00 | 0.01 | 0.01 | 87 | 4080.4 |
| 20260504220454 | 49 | 325 | 2.0 | 6.0 | 0.00 | 0.01 | 0.01 | 86 | 4080.1 |
| 20260504215951 | 49 | 82 | 1.0 | 2.0 | 0.00 | 0.01 | 0.01 | 86 | 4080.1 |
| 20260504215448 | 49 | 77 | 0.0 | 0.0 | 0.00 | 0.01 | 0.01 | 84 | 4080.1 |
| 20260504214944 | 50 | 91 | 0.0 | 1.0 | 0.00 | 0.01 | 0.01 | 82 | 4079.8 |
| 20260504214441 | 51 | 346 | 2.0 | 3.0 | 0.00 | 0.01 | 0.01 | 82 | 4079.8 |
| 20260504213937 | 51 | 41 | 3.0 | 3.0 | 0.00 | 0.01 | 0.01 | 81 | 4079.8 |
| 20260504213433 | 51 | 82 | 1.0 | 2.0 | 0.00 | 0.01 | 0.01 | 81 | 4079.8 |
| 20260504212931 | 52 | 82 | 0.0 | 1.0 | 0.00 | 0.01 | 0.01 | 79 | 4079.8 |
| 20260504212427 | 52 | 351 | 3.0 | 5.0 | 0.00 | 0.01 | 0.01 | 77 | 4079.8 |
| 20260504211925 | 53 | 86 | 2.0 | 2.0 | 0.00 | 0.01 | 0.01 | 76 | 4079.4 |
| 20260504211421 | 52 | 85 | 0.0 | 1.0 | 0.00 | 0.01 | 0.01 | 78 | 4079.8 |
| 20260504210918 | 53 | 116 | 0.0 | 0.0 | 0.00 | 0.01 | 0.01 | 76 | 4079.8 |
| 20260504210415 | 54 | 5 | 3.0 | 3.0 | 0.00 | 0.01 | 0.01 | 74 | 4079.4 |
| 20260504205912 | 53 | 95 | 1.0 | 2.0 | 0.00 | 0.01 | 0.01 | 73 | 4079.4 |
| 20260504205410 | 54 | 34 | 1.0 | 2.0 | 0.00 | 0.01 | 0.01 | 72 | 4079.4 |
| 20260504204908 | 59 | 218 | 3.0 | 5.0 | 0.00 | 0.01 | 0.01 | 67 | 4079.8 |
| 20260504204406 | 62 | 337 | 5.0 | 7.0 | 0.00 | 0.01 | 0.01 | 59 | 4079.4 |
| 20260504203905 | 62 | 243 | 17.0 | 18.0 | 0.00 | 0.01 | 0.01 | 57 | 4078.7 |
| 20260504203402 | 61 | 235 | 17.0 | 18.0 | 0.00 | 0.01 | 0.01 | 57 | 4078.7 |
| 20260504202857 | 62 | 237 | 18.0 | 20.0 | 0.00 | 0.01 | 0.01 | 57 | 4078.7 |
| 20260504202355 | 61 | 236 | 26.0 | 31.0 | 0.00 | 0.01 | 0.01 | 57 | 4078.7 |
| 20260504201851 | 62 | 235 | 25.0 | 29.0 | 0.00 | 0.01 | 0.01 | 55 | 4078.4 |
| 20260504201349 | 61 | 241 | 20.0 | 22.0 | 0.00 | 0.01 | 0.01 | 58 | 4078.7 |
| 20260504200846 | 60 | 245 | 22.0 | 29.0 | 0.00 | 0.01 | 0.01 | 58 | 4079.1 |
| 20260504200343 | 61 | 237 | 17.0 | 18.0 | 0.00 | 0.01 | 0.01 | 56 | 4079.1 |
| 20260504195839 | 61 | 235 | 17.0 | 18.0 | 0.00 | 0.01 | 0.01 | 57 | 4079.1 |
| 20260504195335 | 61 | 228 | 18.0 | 21.0 | 0.00 | 0.01 | 0.01 | 58 | 4078.7 |
| 20260504194832 | 62 | 234 | 18.0 | 21.0 | 0.00 | 0.01 | 0.01 | 56 | 4079.1 |
| 20260504194328 | 62 | 235 | 16.0 | 17.0 | 0.00 | 0.01 | 0.01 | 56 | 4079.1 |
| 20260504193824 | 62 | 231 | 26.0 | 27.0 | 0.00 | 0.01 | 0.01 | 54 | 4079.1 |
| 20260504193321 | 61 | 233 | 19.0 | 23.0 | 0.00 | 0.01 | 0.01 | 58 | 4078.7 |
| 20260504192820 | 62 | 230 | 17.0 | 18.0 | 0.00 | 0.01 | 0.01 | 59 | 4079.1 |
| 20260504192317 | 62 | 249 | 25.0 | 27.0 | 0.00 | 0.01 | 0.01 | 55 | 4079.1 |
| 20260504191816 | 63 | 235 | 25.0 | 26.0 | 0.00 | 0.01 | 0.01 | 52 | 4079.1 |
| 20260504191313 | 62 | 247 | 22.0 | 24.0 | 0.00 | 0.01 | 0.01 | 54 | 4079.4 |
| 20260504190808 | 64 | 243 | 21.0 | 23.0 | 0.00 | 0.01 | 0.01 | 51 | 4079.1 |
| 20260504190305 | 61 | 239 | 19.0 | 23.0 | 0.00 | 0.01 | 0.01 | 57 | 4079.1 |
| 20260504185801 | 62 | 247 | 21.0 | 22.0 | 0.00 | 0.01 | 0.01 | 55 | 4079.1 |
| 20260504185258 | 62 | 239 | 24.0 | 30.0 | 0.00 | 0.01 | 0.01 | 52 | 4079.1 |
| 20260504184754 | 62 | 244 | 18.0 | 20.0 | 0.00 | 0.01 | 0.01 | 57 | 4079.1 |
| 20260504184250 | 64 | 229 | 24.0 | 27.0 | 0.00 | 0.01 | 0.01 | 52 | 4079.1 |
| 20260504183746 | 62 | 225 | 27.0 | 30.0 | 0.00 | 0.01 | 0.01 | 50 | 4079.1 |
| 20260504183243 | 63 | 239 | 16.0 | 23.0 | 0.00 | 0.01 | 0.01 | 56 | 4079.1 |
| 20260504182741 | 61 | 240 | 15.0 | 17.0 | 0.00 | 0.01 | 0.01 | 57 | 4079.1 |
| 20260504182238 | 62 | 243 | 21.0 | 23.0 | 0.00 | 0.01 | 0.01 | 54 | 4079.1 |
| 20260504181736 | 63 | 229 | 18.0 | 20.0 | 0.00 | 0.01 | 0.01 | 55 | 4079.1 |
| 20260504181233 | 62 | 230 | 21.0 | 23.0 | 0.00 | 0.01 | 0.01 | 53 | 4079.1 |
| 20260504180732 | 63 | 229 | 18.0 | 20.0 | 0.00 | 0.01 | 0.01 | 54 | 4079.1 |
| 20260504180231 | 64 | 228 | 23.0 | 25.0 | 0.00 | 0.01 | 0.01 | 49 | 4078.4 |
| 20260504175728 | 64 | 229 | 26.0 | 30.0 | 0.00 | 0.01 | 0.01 | 50 | 4078.7 |
| 20260504175224 | 63 | 212 | 19.0 | 24.0 | 0.00 | 0.01 | 0.01 | 52 | 4078.7 |
| 20260504174722 | 63 | 200 | 18.0 | 20.0 | 0.00 | 0.01 | 0.01 | 55 | 4078.7 |
| 20260504174220 | 63 | 230 | 30.0 | 33.0 | 0.00 | 0.01 | 0.01 | 51 | 4079.1 |
| 20260504173716 | 62 | 234 | 21.0 | 25.0 | 0.00 | 0.01 | 0.01 | 54 | 4079.4 |
| 20260504173213 | 61 | 241 | 22.0 | 25.0 | 0.00 | 0.01 | 0.01 | 56 | 4079.4 |
| 20260504172710 | 62 | 233 | 19.0 | 22.0 | 0.00 | 0.01 | 0.01 | 56 | 4079.4 |
| 20260504172206 | 61 | 227 | 24.0 | 26.0 | 0.00 | 0.01 | 0.01 | 51 | 4079.8 |
| 20260504171703 | 61 | 226 | 20.0 | 22.0 | 0.00 | 0.01 | 0.01 | 56 | 4079.8 |
| 20260504171200 | 60 | 215 | 15.0 | 17.0 | 0.00 | 0.01 | 0.01 | 59 | 4080.1 |
| 20260504170656 | 60 | 222 | 15.0 | 16.0 | 0.00 | 0.01 | 0.01 | 59 | 4080.1 |
| 20260504170154 | 60 | 228 | 16.0 | 18.0 | 0.00 | 0.01 | 0.01 | 58 | 4080.1 |
| 20260504160112 | 56 | 221 | 17.0 | 18.0 | 0.00 | 0.01 | 0.01 | 64 | 4081.1 |
| 20260504151039 | 52 | 164 | 6.0 | 7.0 | 0.00 | 0.01 | 0.01 | 83 | 4082.2 |
| 20260504150536 | 53 | 146 | 6.0 | 8.0 | 0.00 | 0.01 | 0.01 | 85 | 4082.6 |
| 20260504141002 | 49 | 142 | 6.0 | 7.0 | 0.00 | 0.01 | 0.01 | 94 | 4082.9 |
| 20260504140459 | 49 | 148 | 5.0 | 6.0 | 0.00 | 0.01 | 0.01 | 94 | 4083.2 |
| 20260504130424 | 45 | 114 | 3.0 | 3.0 | 0.00 | 0.01 | 0.01 | 99 | 4084.3 |